TOM17H LERS-EGKK

Flight info

Callsign TOM17H
Flight time 1h 34m
Altitude 34000
Route NATPI DCT EVNAM DCT AGN DCT SECHE DCT UVELI DCT CNA DCT MANAK DCT EPAPU UM184 EKRAS UT507 REVTU DCT ODREP UP88 VASUX
Aircraft B738/M-SDE2E3FGHIRWXY/LB1

Departure

Time 2026-05-09 13:08
Airport Reus Airport (LERS)

Arrival

Time 2026-05-09 14:42
Airport London Gatwick Airport (EGKK)
Time Latitude Longitude Altitude Speed Heading
2026-05-09 12:19 41.14749 1.15862 238 ft 0 kts 343°
2026-05-09 12:57 41.14736 1.15867 238 ft 4 kts 342°
2026-05-09 12:57 41.14712 1.15877 239 ft 4 kts 345°
2026-05-09 12:58 41.14686 1.15885 238 ft 4 kts 355°
2026-05-09 12:58 41.14663 1.15885 238 ft 1 kts
2026-05-09 12:58 41.14659 1.15885 238 ft 0 kts
2026-05-09 13:01 41.14676 1.15901 238 ft 5 kts 56°
2026-05-09 13:01 41.14689 1.15941 239 ft 5 kts 68°
2026-05-09 13:01 41.14702 1.15981 239 ft 5 kts 69°
2026-05-09 13:01 41.14714 1.16023 239 ft 5 kts 69°
2026-05-09 13:02 41.14727 1.16070 239 ft 6 kts 69°
2026-05-09 13:02 41.14742 1.16121 239 ft 6 kts 69°
2026-05-09 13:02 41.14759 1.16180 239 ft 8 kts 69°
2026-05-09 13:02 41.14783 1.16263 239 ft 11 kts 68°
2026-05-09 13:03 41.14811 1.16361 239 ft 11 kts 69°
2026-05-09 13:03 41.14839 1.16456 240 ft 11 kts 69°
2026-05-09 13:03 41.14866 1.16550 240 ft 11 kts 69°
2026-05-09 13:03 41.14896 1.16656 240 ft 13 kts 69°
2026-05-09 13:04 41.14932 1.16777 240 ft 15 kts 68°
2026-05-09 13:04 41.14972 1.16912 240 ft 16 kts 69°
2026-05-09 13:04 41.15015 1.17059 240 ft 18 kts 69°
2026-05-09 13:04 41.15059 1.17205 241 ft 17 kts 68°
2026-05-09 13:05 41.15102 1.17351 241 ft 16 kts 69°
2026-05-09 13:05 41.15141 1.17486 241 ft 16 kts 69°
2026-05-09 13:05 41.15180 1.17619 242 ft 15 kts 69°
2026-05-09 13:05 41.15216 1.17747 242 ft 14 kts 69°
2026-05-09 13:06 41.15251 1.17869 242 ft 14 kts 69°
2026-05-09 13:06 41.15284 1.17986 242 ft 13 kts 69°
2026-05-09 13:06 41.15317 1.18096 243 ft 12 kts 68°
2026-05-09 13:06 41.15341 1.18176 243 ft 9 kts 70°
2026-05-09 13:07 41.15321 1.18242 243 ft 9 kts 161°
2026-05-09 13:07 41.15264 1.18269 243 ft 9 kts 160°
2026-05-09 13:07 41.15208 1.18281 244 ft 8 kts 199°
2026-05-09 13:07 41.15176 1.18203 244 ft 19 kts 248°
2026-05-09 13:08 41.15038 1.17732 243 ft 90 kts 249°
2026-05-09 13:08 41.14729 1.16679 239 ft 152 kts 249°
2026-05-09 13:08 41.14277 1.15190 439 ft 185 kts 247°
2026-05-09 13:08 41.13766 1.13607 1155 ft 189 kts 239°
2026-05-09 13:09 41.13026 1.12180 1981 ft 182 kts 231°
2026-05-09 13:09 41.12268 1.10756 2530 ft 203 kts 233°
2026-05-09 13:09 41.11457 1.09111 2941 ft 221 kts 235°
2026-05-09 13:09 41.10594 1.07278 3140 ft 245 kts 236°
2026-05-09 13:10 41.09677 1.05280 3398 ft 266 kts 237°
2026-05-09 13:10 41.08704 1.03119 3907 ft 278 kts 238°
2026-05-09 13:10 41.07732 1.00903 4796 ft 278 kts 242°
2026-05-09 13:10 41.07302 0.98394 5484 ft 286 kts 276°
2026-05-09 13:11 41.07973 0.95960 6327 ft 283 kts 309°
2026-05-09 13:11 41.09421 0.94252 7115 ft 279 kts 335°
2026-05-09 13:11 41.11246 0.93493 7883 ft 275 kts 358°
2026-05-09 13:11 41.13124 0.93705 8658 ft 275 kts 16°
2026-05-09 13:12 41.14972 0.94471 9347 ft 281 kts 21°
2026-05-09 13:12 41.16834 0.95355 10038 ft 286 kts 21°
2026-05-09 13:12 41.18751 0.96284 10450 ft 304 kts 21°
2026-05-09 13:12 41.20815 0.97282 10630 ft 328 kts 22°
2026-05-09 13:13 41.23029 0.98338 10877 ft 347 kts 21°
2026-05-09 13:13 41.25305 0.99407 11412 ft 355 kts 21°
2026-05-09 13:13 41.27675 1.00517 12169 ft 357 kts 22°
2026-05-09 13:13 41.29995 1.01599 12868 ft 361 kts 21°
2026-05-09 13:14 41.32379 1.02709 13573 ft 364 kts 22°
2026-05-09 13:14 41.34780 1.03828 14166 ft 370 kts 21°
2026-05-09 13:16 41.47301 1.09664 16702 ft 399 kts 20°
2026-05-09 13:16 41.49936 1.10895 17255 ft 404 kts 20°
2026-05-09 13:16 41.52602 1.12141 17789 ft 409 kts 20°
2026-05-09 13:16 41.55316 1.13366 18304 ft 414 kts 17°
2026-05-09 13:17 41.58104 1.14377 18830 ft 417 kts 14°
2026-05-09 13:17 41.60944 1.15276 19201 ft 424 kts 14°
2026-05-09 13:17 41.63852 1.16165 19535 ft 432 kts 14°
2026-05-09 13:17 41.66795 1.17072 20013 ft 436 kts 14°
2026-05-09 13:18 41.69755 1.18000 20493 ft 439 kts 14°
2026-05-09 13:18 41.72747 1.18954 20922 ft 444 kts 14°
2026-05-09 13:18 41.75763 1.19929 21355 ft 448 kts 14°
2026-05-09 13:18 41.78788 1.20905 21869 ft 442 kts 13°
2026-05-09 13:19 41.81756 1.21838 21943 ft 436 kts 14°
2026-05-09 13:19 41.84690 1.22778 21937 ft 432 kts 14°
2026-05-09 13:19 41.87595 1.23723 21938 ft 428 kts 14°
2026-05-09 13:19 41.90474 1.24669 21943 ft 424 kts 14°
2026-05-09 13:20 41.93328 1.25610 21946 ft 420 kts 14°
2026-05-09 13:20 41.96154 1.26543 21943 ft 417 kts 14°
2026-05-09 13:20 41.98959 1.27470 21954 ft 413 kts 14°
2026-05-09 13:20 42.01739 1.28390 21971 ft 410 kts 14°
2026-05-09 13:21 42.04499 1.29303 21964 ft 407 kts 14°
2026-05-09 13:21 42.07240 1.30212 21955 ft 404 kts 14°
2026-05-09 13:21 42.09960 1.31117 21955 ft 401 kts 14°
2026-05-09 13:21 42.12661 1.32017 21961 ft 399 kts 14°
2026-05-09 13:22 42.15348 1.32908 21939 ft 397 kts 14°
2026-05-09 13:22 42.18016 1.33787 21977 ft 393 kts 14°
2026-05-09 13:22 42.20694 1.34489 22000 ft 391 kts
2026-05-09 13:23 42.31948 1.32760 22397 ft 435 kts 349°
2026-05-09 13:23 42.34971 1.32034 22557 ft 446 kts 349°
2026-05-09 13:24 42.37007 1.31553 22768 ft 451 kts 349°
2026-05-09 13:24 42.40109 1.30836 23207 ft 453 kts 349°
2026-05-09 13:24 42.43226 1.30130 23663 ft 456 kts 349°
2026-05-09 13:24 42.46362 1.29429 24011 ft 459 kts 349°
2026-05-09 13:25 42.49519 1.28725 24340 ft 462 kts 349°
2026-05-09 13:25 42.52706 1.28016 24668 ft 465 kts 349°
2026-05-09 13:25 42.59132 1.26580 25307 ft 471 kts 349°
2026-05-09 13:26 42.62374 1.25853 25719 ft 471 kts 348°
2026-05-09 13:26 42.65606 1.25128 26129 ft 473 kts 348°
2026-05-09 13:26 42.68865 1.24395 26415 ft 476 kts 348°
2026-05-09 13:26 42.72148 1.23659 26705 ft 480 kts 349°
2026-05-09 13:27 42.75467 1.23047 27015 ft 483 kts 351°
2026-05-09 13:27 42.78820 1.22568 27273 ft 485 kts 353°
2026-05-09 13:27 42.82193 1.22144 27555 ft 488 kts 353°
2026-05-09 13:27 42.85586 1.21726 27851 ft 491 kts 353°
2026-05-09 13:28 42.88985 1.21298 28187 ft 492 kts 353°
2026-05-09 13:28 42.92369 1.20855 28392 ft 496 kts 352°
2026-05-09 13:28 42.95814 1.20392 28650 ft 499 kts 352°
2026-05-09 13:28 42.99322 1.19912 28950 ft 501 kts 352°
2026-05-09 13:29 43.02752 1.19438 29230 ft 503 kts 352°
2026-05-09 13:29 43.06231 1.18956 29625 ft 502 kts 352°
2026-05-09 13:29 43.09696 1.18475 30064 ft 500 kts 352°
2026-05-09 13:29 43.13151 1.17996 30380 ft 500 kts 352°
2026-05-09 13:30 43.16618 1.17515 30610 ft 501 kts 352°
2026-05-09 13:30 43.20083 1.17034 30852 ft 502 kts 352°
2026-05-09 13:30 43.23563 1.16550 31151 ft 502 kts 352°
2026-05-09 13:30 43.27041 1.16067 31453 ft 502 kts 352°
2026-05-09 13:31 43.30517 1.15584 31738 ft 502 kts 351°
2026-05-09 13:31 43.33998 1.15099 32026 ft 502 kts 351°
2026-05-09 13:31 43.37477 1.14613 32316 ft 503 kts 351°
2026-05-09 13:31 43.40962 1.14126 32519 ft 505 kts 352°
2026-05-09 13:32 43.44475 1.13634 32675 ft 509 kts 351°
2026-05-09 13:32 43.51530 1.12646 33182 ft 510 kts 351°
2026-05-09 13:32 43.55057 1.12151 33506 ft 508 kts 351°
2026-05-09 13:33 43.58527 1.11347 33804 ft 503 kts 341°
2026-05-09 13:33 43.61847 1.09882 33934 ft 501 kts 333°
2026-05-09 13:33 43.64964 1.07786 33934 ft 495 kts 322°
2026-05-09 13:33 43.67877 1.05287 33932 ft 493 kts 321°
2026-05-09 13:34 43.73645 1.00239 33913 ft 489 kts 321°
2026-05-09 13:34 43.79410 0.95292 33913 ft 487 kts 322°
2026-05-09 13:35 43.85171 0.90397 33912 ft 485 kts 322°
2026-05-09 13:35 43.91002 0.85673 33905 ft 489 kts 327°
2026-05-09 13:36 43.97199 0.81680 33917 ft 492 kts 330°
2026-05-09 13:36 44.03465 0.77794 33928 ft 494 kts 329°
2026-05-09 13:37 44.09728 0.73803 33913 ft 497 kts 329°
2026-05-09 13:37 44.16001 0.69732 33921 ft 498 kts 329°
2026-05-09 13:38 44.22296 0.65629 33916 ft 501 kts 329°
2026-05-09 13:38 44.28576 0.61533 33911 ft 502 kts 328°
2026-05-09 13:39 44.34901 0.57400 33902 ft 502 kts 328°
2026-05-09 13:39 44.41229 0.53255 33898 ft 502 kts 328°
2026-05-09 13:40 44.47539 0.49105 33904 ft 500 kts 328°
2026-05-09 13:40 44.53815 0.44941 33895 ft 498 kts 328°
2026-05-09 13:41 44.60063 0.40781 33906 ft 496 kts 328°
2026-05-09 13:41 44.66285 0.36631 33920 ft 495 kts 327°
2026-05-09 13:42 44.72507 0.32471 33905 ft 494 kts 327°
2026-05-09 13:42 44.78711 0.28316 33923 ft 494 kts 327°
2026-05-09 13:43 44.84912 0.24152 33902 ft 494 kts 327°
2026-05-09 13:43 44.91110 0.19979 33903 ft 494 kts 327°
2026-05-09 13:44 44.97316 0.15791 33914 ft 495 kts 327°
2026-05-09 13:44 45.03542 0.11579 33932 ft 499 kts 327°
2026-05-09 13:45 45.09814 0.07329 33894 ft 501 kts 327°
2026-05-09 13:45 45.16093 0.03070 33903 ft 499 kts 327°
2026-05-09 13:46 45.22339 -0.01177 33933 ft 497 kts 326°
2026-05-09 13:46 45.28563 -0.05424 33919 ft 495 kts 326°
2026-05-09 13:47 45.34757 -0.09661 33917 ft 494 kts 326°
2026-05-09 13:47 45.40942 -0.13904 33921 ft 492 kts 326°
2026-05-09 13:48 45.47104 -0.18141 33911 ft 491 kts 326°
2026-05-09 13:48 45.53251 -0.22378 33913 ft 491 kts 326°
2026-05-09 13:49 45.59400 -0.26627 33916 ft 491 kts 326°
2026-05-09 13:49 45.65523 -0.30927 33907 ft 487 kts 322°
2026-05-09 13:50 45.68312 -0.33546 33905 ft 475 kts 313°
2026-05-09 13:50 45.70904 -0.36461 33919 ft 473 kts 311°
2026-05-09 13:50 45.76259 -0.42066 33903 ft 487 kts 322°
2026-05-09 13:51 45.79360 -0.44125 33909 ft 498 kts 332°
2026-05-09 13:51 45.82647 -0.45742 33923 ft 500 kts 334°
2026-05-09 13:51 45.89267 -0.48858 33912 ft 501 kts 334°
2026-05-09 13:52 45.95885 -0.52019 33918 ft 501 kts 333°
2026-05-09 13:52 46.02476 -0.55241 33922 ft 500 kts 334°
2026-05-09 13:53 46.09045 -0.58489 33911 ft 498 kts 333°
2026-05-09 13:53 46.15591 -0.61736 33906 ft 496 kts 333°
2026-05-09 13:54 46.22100 -0.64969 33912 ft 493 kts 334°
2026-05-09 13:54 46.28526 -0.68166 33902 ft 490 kts 334°
2026-05-09 13:55 46.34945 -0.71368 33905 ft 487 kts 334°
2026-05-09 13:55 46.41326 -0.74560 33928 ft 484 kts 334°
2026-05-09 13:56 46.47684 -0.77749 33908 ft 482 kts 334°
2026-05-09 13:56 46.54022 -0.80936 33937 ft 482 kts 334°
2026-05-09 13:57 46.60356 -0.84130 33931 ft 482 kts 334°
2026-05-09 13:57 46.66696 -0.87332 33920 ft 482 kts 334°
2026-05-09 13:58 46.73031 -0.90540 33911 ft 482 kts 334°
2026-05-09 13:58 46.79358 -0.93751 33912 ft 481 kts 334°
2026-05-09 13:59 46.85684 -0.96971 33923 ft 481 kts 334°
2026-05-09 13:59 46.92014 -1.00201 33920 ft 482 kts 334°
2026-05-09 14:00 46.96206 -1.02344 33916 ft 482 kts 334°
2026-05-09 14:00 47.04670 -1.06683 33927 ft 483 kts 333°
2026-05-09 14:01 47.11016 -1.09946 33925 ft 483 kts 333°
2026-05-09 14:01 47.17316 -1.13192 33926 ft 483 kts 333°
2026-05-09 14:02 47.23731 -1.16264 33920 ft 492 kts 341°
2026-05-09 14:02 47.30558 -1.17711 33929 ft 497 kts 347°
2026-05-09 14:03 47.37427 -1.18896 33945 ft 497 kts 346°
2026-05-09 14:03 47.44241 -1.20150 33942 ft 496 kts 346°
2026-05-09 14:04 47.51077 -1.21491 33940 ft 495 kts 345°
2026-05-09 14:04 47.57885 -1.22855 33941 ft 494 kts 345°
2026-05-09 14:05 47.64684 -1.24219 33946 ft 492 kts 345°
2026-05-09 14:05 47.71469 -1.25580 33941 ft 491 kts 345°
2026-05-09 14:06 47.78240 -1.26940 33951 ft 491 kts 345°
2026-05-09 14:06 47.85009 -1.28303 33960 ft 490 kts 345°
2026-05-09 14:07 47.91764 -1.29667 33948 ft 490 kts 345°
2026-05-09 14:07 47.98521 -1.31035 33953 ft 490 kts 345°
2026-05-09 14:08 48.05274 -1.32406 33959 ft 490 kts 344°
2026-05-09 14:08 48.12041 -1.33783 33943 ft 490 kts 344°
2026-05-09 14:09 48.18801 -1.35163 33949 ft 490 kts 344°
2026-05-09 14:09 48.25517 -1.36537 33964 ft 490 kts 344°
2026-05-09 14:10 48.35704 -1.38627 33959 ft 490 kts 344°
2026-05-09 14:11 48.42409 -1.40008 33956 ft 490 kts 344°
2026-05-09 14:11 48.49157 -1.41402 33955 ft 489 kts 344°
2026-05-09 14:12 48.55897 -1.42798 33963 ft 488 kts 344°
2026-05-09 14:12 48.62619 -1.44193 33957 ft 487 kts 344°
2026-05-09 14:13 48.68194 -1.45354 33977 ft 486 kts 345°
2026-05-09 14:15 48.94844 -1.51293 33980 ft 479 kts 340°
2026-05-09 14:15 49.01339 -1.53465 33975 ft 478 kts 340°
2026-05-09 14:16 49.07837 -1.55651 34005 ft 478 kts 342°
2026-05-09 14:16 49.14344 -1.57781 33987 ft 479 kts 342°
2026-05-09 14:17 49.20866 -1.59892 33983 ft 479 kts 342°
2026-05-09 14:17 49.27379 -1.62005 33996 ft 478 kts 342°
2026-05-09 14:18 49.33891 -1.64127 34003 ft 478 kts 343°
2026-05-09 14:18 49.40404 -1.66256 34003 ft 478 kts 343°
2026-05-09 14:19 49.46906 -1.68388 34019 ft 478 kts 343°
2026-05-09 14:19 49.53411 -1.70527 34025 ft 478 kts 344°
2026-05-09 14:20 49.60053 -1.71473 33486 ft 485 kts
2026-05-09 14:20 49.63370 -1.70676 32971 ft 482 kts 12°
2026-05-09 14:20 49.66566 -1.69089 32358 ft 482 kts 19°
2026-05-09 14:21 49.72816 -1.65469 31347 ft 476 kts 20°
2026-05-09 14:21 49.75904 -1.63687 30900 ft 472 kts 20°
2026-05-09 14:21 49.78973 -1.61945 30444 ft 468 kts 20°
2026-05-09 14:21 49.82021 -1.60237 29975 ft 464 kts 20°
2026-05-09 14:22 49.85050 -1.58550 29458 ft 460 kts 19°
2026-05-09 14:22 49.88049 -1.56882 29003 ft 456 kts 20°
2026-05-09 14:22 49.91023 -1.55225 28540 ft 451 kts 20°
2026-05-09 14:22 49.93961 -1.53585 28082 ft 447 kts 20°
2026-05-09 14:23 49.96877 -1.51953 27633 ft 444 kts 20°
2026-05-09 14:23 49.99770 -1.50332 27171 ft 440 kts 20°
2026-05-09 14:23 50.02617 -1.48808 26712 ft 437 kts 18°
2026-05-09 14:23 50.05509 -1.47396 26280 ft 434 kts 17°
2026-05-09 14:24 50.08388 -1.46034 25836 ft 431 kts 17°
2026-05-09 14:24 50.11250 -1.44675 25395 ft 428 kts 17°
2026-05-09 14:24 50.14091 -1.43307 24958 ft 426 kts 17°
2026-05-09 14:24 50.16910 -1.41932 24527 ft 424 kts 17°
2026-05-09 14:25 50.19718 -1.40553 24093 ft 422 kts 17°
2026-05-09 14:25 50.22508 -1.39179 23649 ft 420 kts 17°
2026-05-09 14:25 50.25287 -1.37810 23146 ft 418 kts 17°
2026-05-09 14:25 50.28051 -1.36452 22677 ft 415 kts 17°
2026-05-09 14:26 50.30791 -1.35110 22234 ft 412 kts 17°
2026-05-09 14:26 50.33517 -1.33773 21804 ft 409 kts 17°
2026-05-09 14:26 50.36218 -1.32447 21365 ft 406 kts 17°
2026-05-09 14:26 50.38902 -1.31127 20934 ft 403 kts 17°
2026-05-09 14:27 50.41572 -1.29812 20512 ft 401 kts 17°
2026-05-09 14:27 50.44225 -1.28504 20090 ft 398 kts 17°
2026-05-09 14:27 50.46864 -1.27201 19670 ft 396 kts 17°
2026-05-09 14:27 50.49444 -1.25722 19240 ft 395 kts 25°
2026-05-09 14:28 50.51819 -1.23586 18835 ft 393 kts 36°
2026-05-09 14:28 50.53942 -1.20897 18424 ft 391 kts 40°
2026-05-09 14:28 50.55996 -1.18118 17947 ft 389 kts 41°
2026-05-09 14:28 50.58042 -1.15342 17490 ft 387 kts 41°
2026-05-09 14:29 50.60083 -1.12602 17060 ft 385 kts 40°
2026-05-09 14:29 50.62121 -1.09893 16640 ft 382 kts 40°
2026-05-09 14:29 50.64151 -1.07203 16229 ft 380 kts 40°
2026-05-09 14:29 50.66133 -1.04477 15814 ft 378 kts 45°
2026-05-09 14:30 50.67864 -1.01386 15408 ft 375 kts 51°
2026-05-09 14:30 50.69484 -0.98197 14998 ft 369 kts 52°
2026-05-09 14:30 50.71068 -0.95047 14597 ft 363 kts 51°
2026-05-09 14:30 50.72630 -0.91964 14208 ft 357 kts 51°
2026-05-09 14:31 50.74178 -0.88937 13824 ft 353 kts 51°
2026-05-09 14:31 50.75715 -0.85951 13585 ft 347 kts 51°
2026-05-09 14:31 50.77226 -0.83027 13416 ft 340 kts 51°
2026-05-09 14:31 50.78704 -0.80162 13259 ft 332 kts 51°
2026-05-09 14:32 50.80147 -0.77364 13116 ft 324 kts 51°
2026-05-09 14:32 50.81659 -0.74786 12735 ft 319 kts 38°
2026-05-09 14:32 50.83499 -0.72861 12193 ft 316 kts 31°
2026-05-09 14:32 50.85384 -0.71055 11559 ft 317 kts 31°
2026-05-09 14:33 50.87269 -0.69252 10949 ft 316 kts 31°
2026-05-09 14:33 50.89118 -0.67463 10360 ft 316 kts 32°
2026-05-09 14:33 50.91009 -0.65613 9723 ft 315 kts 32°
2026-05-09 14:33 50.92871 -0.63805 9074 ft 313 kts 28°
2026-05-09 14:34 50.94959 -0.62931 8456 ft 313 kts 359°
2026-05-09 14:34 50.97083 -0.63528 7951 ft 309 kts 346°
2026-05-09 14:34 50.99135 -0.64398 7534 ft 302 kts 346°
2026-05-09 14:34 51.01133 -0.65260 7224 ft 292 kts 346°
2026-05-09 14:35 51.03051 -0.66112 6973 ft 282 kts 346°
2026-05-09 14:35 51.04905 -0.66954 6725 ft 272 kts 345°
2026-05-09 14:35 51.06699 -0.67774 6476 ft 265 kts 345°
2026-05-09 14:35 51.08449 -0.68576 6205 ft 258 kts 346°
2026-05-09 14:36 51.10142 -0.69261 5919 ft 250 kts
2026-05-09 14:36 51.11766 -0.68626 5646 ft 234 kts 37°
2026-05-09 14:36 51.12709 -0.66604 5412 ft 229 kts 75°
2026-05-09 14:36 51.12871 -0.64110 5196 ft 227 kts 94°
2026-05-09 14:37 51.12670 -0.61606 4947 ft 227 kts 98°
2026-05-09 14:37 51.12416 -0.59157 4683 ft 222 kts 98°
2026-05-09 14:37 51.12178 -0.56748 4416 ft 218 kts 98°
2026-05-09 14:37 51.11947 -0.54383 4192 ft 217 kts 97°
2026-05-09 14:38 51.11734 -0.52043 3897 ft 216 kts 98°
2026-05-09 14:38 51.11512 -0.49639 3572 ft 216 kts 97°
2026-05-09 14:38 51.11302 -0.47339 3223 ft 211 kts 98°
2026-05-09 14:38 51.11238 -0.45063 3010 ft 200 kts 79°
2026-05-09 14:39 51.11571 -0.42942 2964 ft 199 kts 79°
2026-05-09 14:39 51.11847 -0.40747 2707 ft 201 kts 79°
2026-05-09 14:39 51.12100 -0.38590 2457 ft 199 kts 79°
2026-05-09 14:39 51.12403 -0.36483 2235 ft 189 kts 76°
2026-05-09 14:40 51.12709 -0.34499 1953 ft 178 kts 79°
2026-05-09 14:40 51.12949 -0.32657 1728 ft 163 kts 78°
2026-05-09 14:40 51.13182 -0.30961 1520 ft 152 kts 77°
2026-05-09 14:40 51.13396 -0.29365 1351 ft 148 kts 77°
2026-05-09 14:41 51.13606 -0.27800 1148 ft 139 kts 78°
2026-05-09 14:41 51.13806 -0.26337 947 ft 131 kts 75°
2026-05-09 14:41 51.14002 -0.24902 803 ft 137 kts 78°
2026-05-09 14:41 51.14208 -0.23405 596 ft 141 kts 76°
2026-05-09 14:42 51.14421 -0.21868 393 ft 142 kts 77°
2026-05-09 14:42 51.14629 -0.20357 219 ft 137 kts 77°
2026-05-09 14:42 51.14828 -0.18933 214 ft 118 kts 77°
2026-05-09 14:42 51.14948 -0.18077 209 ft 36 kts 74°
2026-05-09 14:43 51.15043 -0.17824 210 ft 17 kts 52°
2026-05-09 14:43 51.15104 -0.17756 204 ft 6 kts 357°
2026-05-09 14:43 51.15121 -0.17758 204 ft 2 kts 356°
2026-05-09 14:43 51.15129 -0.17759 204 ft 0 kts 354°
2026-05-09 14:44 51.15141 -0.17761 204 ft 5 kts 354°
2026-05-09 14:45 51.15187 -0.17769 204 ft 8 kts 353°
2026-05-09 14:45 51.15244 -0.17770 210 ft 9 kts 22°
2026-05-09 14:45 51.15268 -0.17687 205 ft 8 kts 76°
2026-05-09 14:45 51.15280 -0.17598 203 ft 8 kts 79°
2026-05-09 14:46 51.15291 -0.17510 210 ft 8 kts 77°
2026-05-09 14:46 51.15301 -0.17425 205 ft 8 kts 80°
2026-05-09 14:46 51.15332 -0.17364 203 ft 7 kts 14°
2026-05-09 14:46 51.15382 -0.17379 203 ft 7 kts 347°
2026-05-09 14:47 51.15431 -0.17396 203 ft 7 kts 347°
2026-05-09 14:47 51.15484 -0.17415 206 ft 9 kts 347°
2026-05-09 14:47 51.15554 -0.17440 206 ft 12 kts 347°
2026-05-09 14:47 51.15639 -0.17470 203 ft 13 kts 348°
2026-05-09 14:48 51.15719 -0.17497 203 ft 10 kts 347°
2026-05-09 14:48 51.15767 -0.17455 203 ft 9 kts 73°
2026-05-09 14:48 51.15781 -0.17363 205 ft 8 kts 77°
2026-05-09 14:48 51.15794 -0.17273 213 ft 8 kts 77°
2026-05-09 14:49 51.15805 -0.17186 203 ft 8 kts 78°
2026-05-09 14:49 51.15820 -0.17107 203 ft 3 kts 59°
2026-05-09 14:49 51.15834 -0.17084 212 ft 3 kts 27°
2026-05-09 14:49 51.15858 -0.17075 206 ft 4 kts 13°
2026-05-09 14:50 51.15886 -0.17084 203 ft 5 kts 320°
2026-05-09 14:50 51.15910 -0.17124 210 ft 5 kts 316°
2026-05-09 14:50 51.15929 -0.17154 203 ft 3 kts 315°
2026-05-09 14:50 51.15936 -0.17164 203 ft 0 kts 315°